[[{"header":{"parameterUnit":"m.s-1","parameterCategory":1,"la1":30.2991,"la2":30.254,"lo1":-89.0895,"lo2":-89.0444,"dy":0.0017,"dx":0.0017,"nx":28,"ny":28,"refTime":"2025-07-09T21:00:00:Z","depth":0,"parameterNumber":2,"parameterNumberName":"U-component_of_WINDS"},"data":[0,0,0,0,0,0,0,0,0,0,0,0,0,0,0,0,0,0,0,0,0,0,0,0,0,0,0,0,0,0,0,0,0,0,0,0,0,0,0,0,0,0,0,0,0,0,0,0,0,0,0,0,0,0,0,0,0,0,2.2227,2.2227,0,2.2271,2.2272,2.2272,2.2263,2.2262,2.2261,2.226,2.2311,2.2313,2.2315,0,0,0,0,0,0,0,0,0,0,0,0,0,2.2139,2.2141,2.2227,2.2227,2.2228,2.2271,2.2272,2.2272,2.2263,2.2262,2.2261,2.226,2.231,2.2313,2.2315,0,0,0,0,0,0,0,0,0,0,0,0,0,2.218,2.2141,2.2227,2.2228,2.2229,2.2271,2.2272,2.2272,2.2263,2.2262,2.226,2.2259,2.2309,2.2313,2.2316,2.2361,0,0,2.2326,2.2327,0,0,0,0,0,0,0,0,2.2178,2.2183,2.2227,2.2228,2.2229,2.226,2.2259,2.2302,2.2263,2.225,2.226,2.2259,2.2295,2.23,2.2311,2.2363,2.2365,2.2326,2.2328,2.2329,2.233,0,0,0,0,0,0,0,2.2175,2.2181,2.2244,2.2228,2.2229,2.2228,2.2233,2.2267,2.228,2.2251,2.2251,2.2256,2.2296,2.2308,2.2312,2.2366,2.2326,2.2329,2.2331,2.2332,2.2459,2.246,0,0,0,0,0,0,2.2171,2.2179,2.2243,2.2246,2.2199,2.2231,2.2236,2.2251,2.2279,2.2282,2.2257,2.2255,2.2303,2.2308,2.2314,2.2369,2.2329,2.2332,2.2334,2.2457,2.2459,2.2461,0,0,0,0,0,0,2.2169,2.2176,2.2241,2.2212,2.222,2.2234,2.2251,2.2253,2.2265,2.2283,2.2286,2.2267,2.2302,2.2309,2.2349,2.2371,2.2334,2.2336,2.2455,2.2458,2.246,2.2479,0,0,0,0,0,0,2.2166,2.2176,2.2192,2.2212,2.2222,2.2274,2.2253,2.2255,2.227,2.2268,2.2293,2.2296,2.2302,2.2344,2.2352,2.2374,2.2339,2.2454,2.2456,2.2459,2.2477,2.2482,2.2486,0,0,0,0,0,2.2163,2.2196,2.2193,2.22,2.2242,2.2275,2.2281,2.2285,2.2272,2.2289,2.23,2.2295,2.2367,2.2348,2.2357,2.2381,2.2452,2.2456,2.2459,2.2475,2.2481,2.2486,0,0,0,0,0,0,2.218,2.2199,2.2195,2.2236,2.2254,2.2274,2.2295,2.2291,2.2315,2.2313,2.2318,2.2324,2.2365,2.2377,2.2356,2.2426,2.2408,2.2413,2.2417,2.2423,2.2428,2.2424,2.2342,0,0,0,0,0,2.2188,2.2212,2.2228,2.2263,2.2272,2.2282,2.2297,2.2298,2.2318,2.2326,2.234,2.2361,2.2388,2.2406,2.2432,2.2478,2.2484,2.2499,2.2504,2.2507,2.2512,2.2538,2.2545,2.2471,2.2471,2.2471,0,0,2.2205,2.2219,2.2234,2.2266,2.228,2.2307,2.2288,2.2317,2.2337,2.2331,2.2369,2.238,2.2404,2.2447,2.2467,2.2458,2.2534,2.2511,2.2514,2.2517,2.2542,2.2549,2.2556,2.2473,2.2473,2.2473,0,0,2.2251,2.2263,2.2293,2.2307,2.2328,2.2335,2.2342,2.2363,2.2369,2.2407,2.2403,2.2428,2.2475,2.2492,2.2507,2.2559,2.2555,2.2567,2.2592,2.2617,2.2623,2.2628,2.2648,2.2655,2.2571,2.2572,2.2572,0,2.2271,2.2308,2.231,2.2338,2.2353,2.2347,2.2379,2.2393,2.2422,2.2434,2.2423,2.2481,2.2497,2.2544,2.2557,2.2569,2.2578,2.2565,2.2622,2.2627,2.2632,2.2651,2.2658,2.2573,2.2573,2.2573,2.2572,0,2.2332,2.2358,2.2381,2.2407,2.2424,2.2455,2.2462,2.248,2.248,2.2488,2.2528,2.2546,2.2576,2.2587,2.2588,2.2635,2.2629,2.262,2.2602,2.264,2.2658,2.2665,2.2575,2.2574,2.2574,2.2574,0,0,2.239,2.2416,2.2424,2.2437,2.2459,2.248,2.2511,2.2538,2.2554,2.2574,2.2601,2.264,2.2632,2.2649,2.2652,2.2674,2.2715,2.2663,2.2663,2.2673,2.2769,2.2776,2.2784,2.2713,2.2714,2.2715,2.2768,0,2.2438,2.249,2.2492,2.254,2.2565,2.2559,2.2586,2.2604,2.2613,2.2637,2.2647,2.2675,2.2661,2.2672,2.2693,2.2706,2.2735,2.2702,2.274,2.2741,2.2734,2.2794,2.2801,2.285,2.2775,2.2776,2.2777,0,2.2501,2.2522,2.2572,2.2591,2.2602,2.2625,2.2651,2.2673,2.2694,2.2699,2.2717,2.2717,2.275,2.273,2.2776,2.2754,2.2769,2.2778,2.278,2.2784,2.2761,2.2801,2.2865,2.2873,2.2787,2.2786,2.2786,0,2.254,2.258,2.2615,2.2626,2.2649,2.2666,2.2676,2.2695,2.2712,2.2735,2.2746,2.2773,2.2788,2.281,2.2817,2.2802,2.2864,2.2844,2.287,2.287,2.2885,2.2884,2.2953,2.2893,2.2893,2.2893,2.2893,0,2.2594,2.2625,2.2633,2.2654,2.2689,2.2692,2.2728,2.2738,2.2755,2.2779,2.2777,2.2801,2.2809,2.2834,2.2841,2.2879,2.2886,2.2892,2.2893,2.2893,2.2892,2.2903,2.2901,2.2895,2.2894,2.2894,2.2894,0,2.2643,2.2649,2.2687,2.2705,2.2711,2.2736,2.2752,2.2774,2.2782,2.2813,2.2821,2.2834,2.2864,2.2874,2.2911,2.2915,2.296,2.2958,2.2952,2.2953,2.2978,2.2976,2.3059,2.307,2.3002,2.3002,2.3003,0,2.2677,2.2701,2.2721,2.2737,2.2748,2.2773,2.2789,2.2793,2.2811,2.2836,2.2855,2.2884,2.2908,2.2957,2.2971,2.2999,2.2998,2.3025,2.3003,2.3001,2.3,2.2999,2.3001,2.303,2.3031,2.3031,2.3032,0,2.2738,2.274,2.2763,2.2787,2.2806,2.2825,2.2844,2.2857,2.2864,2.2884,2.2914,2.2932,2.2969,2.2999,2.3027,2.3041,2.3038,2.3038,2.3046,2.3046,2.3042,2.3045,2.2965,2.3037,2.3036,2.3036,2.3036,2.3035,2.2782,2.2803,2.282,2.2845,2.286,2.2877,2.2898,2.2908,2.2932,2.2961,2.2963,2.2995,2.3016,2.3054,2.3069,2.3095,2.3088,2.3099,2.3102,2.3105,2.3107,2.3037,2.3101,2.3101,2.31,2.31,2.31,0,2.2843,2.2854,2.2877,2.2903,2.2923,2.2917,2.2937,2.2955,2.2983,2.3002,2.3025,2.3059,2.3088,2.3104,2.3133,2.3151,2.3151,2.3159,2.3158,2.3161,2.3112,2.3102,2.3159,2.3159,2.3159,2.3159,2.3159,2.3159,2.2878,2.2913,2.2916,2.2959,2.297,2.3,2.3012,2.3029,2.3044,2.3082,2.3105,2.3114,2.3133,2.3163,2.3189,2.3193,2.3205,2.3213,2.3217,2.3171,2.3165,2.3159,2.315,2.3216,2.3216,2.3264,2.3265,2.3265]},{"header":{"parameterUnit":"m.s-1","parameterCategory":1,"la1":30.2991,"la2":30.254,"lo1":-89.0895,"lo2":-89.0444,"dy":0.0017,"dx":0.0017,"nx":28,"ny":28,"refTime":"2025-07-09T21:00:00:Z","depth":0,"parameterNumber":3,"parameterNumberName":"V-component_of_WINDS"},"data":[0,0,0,0,0,0,0,0,0,0,0,0,0,0,0,0,0,0,0,0,0,0,0,0,0,0,0,0,0,0,0,0,0,0,0,0,0,0,0,0,0,0,0,0,0,0,0,0,0,0,0,0,0,0,0,0,0,0,2.8483,2.8483,0,2.8495,2.8495,2.8495,2.8503,2.8503,2.8503,2.8503,2.8512,2.8512,2.8513,0,0,0,0,0,0,0,0,0,0,0,0,0,2.8462,2.8462,2.8483,2.8483,2.8483,2.8495,2.8495,2.8495,2.8503,2.8503,2.8503,2.8503,2.8512,2.8512,2.8513,0,0,0,0,0,0,0,0,0,0,0,0,0,2.8472,2.8462,2.8483,2.8488,2.8489,2.8495,2.8495,2.8495,2.8503,2.8503,2.8503,2.8503,2.8512,2.8512,2.8513,2.8513,0,0,2.8513,2.8514,0,0,0,0,0,0,0,0,2.8471,2.8473,2.8487,2.8488,2.8489,2.8497,2.8491,2.8501,2.8503,2.8497,2.8503,2.8503,2.8507,2.8508,2.851,2.8513,2.8513,2.8513,2.8514,2.8514,2.8514,0,0,0,0,0,0,0,2.8471,2.8472,2.8487,2.8488,2.8488,2.8489,2.849,2.8493,2.8501,2.8498,2.8499,2.85,2.8507,2.8509,2.851,2.8513,2.8513,2.8514,2.8514,2.8514,2.8514,2.8514,0,0,0,0,0,0,2.8469,2.8471,2.8487,2.8488,2.848,2.8489,2.8491,2.8494,2.8502,2.8503,2.85,2.85,2.8509,2.851,2.851,2.8509,2.8514,2.8514,2.8514,2.8514,2.8514,2.8514,0,0,0,0,0,0,2.8469,2.8471,2.8487,2.848,2.8482,2.8489,2.8493,2.8495,2.8497,2.8503,2.8504,2.8501,2.8509,2.851,2.8511,2.8509,2.8514,2.8514,2.8514,2.8514,2.8514,2.8507,0,0,0,0,0,0,2.8468,2.8471,2.8472,2.848,2.8482,2.8489,2.8493,2.8495,2.8498,2.8498,2.8504,2.8505,2.8509,2.8511,2.8512,2.851,2.8515,2.8514,2.8514,2.8514,2.8507,2.8506,2.8506,0,0,0,0,0,2.8468,2.847,2.8472,2.8474,2.8484,2.8489,2.849,2.8496,2.8498,2.8498,2.8501,2.8505,2.8509,2.8511,2.8512,2.851,2.8515,2.8514,2.8514,2.8508,2.8507,2.8506,0,0,0,0,0,0,2.8461,2.8471,2.8474,2.8479,2.8483,2.849,2.8491,2.8495,2.8498,2.8498,2.8504,2.8505,2.8505,2.8508,2.8509,2.8509,2.8512,2.8512,2.8507,2.8506,2.8505,2.8504,2.8515,0,0,0,0,0,2.8461,2.8465,2.8473,2.8476,2.8478,2.8484,2.8486,2.849,2.8494,2.8496,2.85,2.8503,2.8504,2.8505,2.8508,2.8507,2.8507,2.8506,2.8505,2.8505,2.8504,2.8502,2.85,2.8512,2.8512,2.8512,0,0,2.8459,2.8465,2.8467,2.8475,2.8479,2.8481,2.8486,2.8489,2.849,2.8496,2.8498,2.85,2.8503,2.8503,2.8504,2.8506,2.8501,2.8504,2.8504,2.8504,2.8501,2.85,2.8499,2.8512,2.8512,2.8512,0,0,2.8457,2.8463,2.8465,2.8468,2.8474,2.8478,2.8478,2.8484,2.8486,2.8488,2.8492,2.8492,2.8496,2.8498,2.8499,2.8494,2.8496,2.8494,2.849,2.8487,2.8486,2.8485,2.8482,2.8481,2.8494,2.8494,2.8494,0,2.8454,2.846,2.8466,2.8468,2.847,2.8476,2.8477,2.8479,2.8485,2.8485,2.8487,2.849,2.8493,2.8492,2.8491,2.8492,2.8491,2.8494,2.8486,2.8485,2.8485,2.8481,2.848,2.8494,2.8494,2.8494,2.8494,0,2.8455,2.8458,2.8459,2.8464,2.8466,2.8468,2.8472,2.8473,2.8476,2.8479,2.8478,2.8482,2.8483,2.8483,2.8486,2.8482,2.8483,2.8486,2.8489,2.8483,2.848,2.8479,2.8493,2.8493,2.8493,2.8493,0,0,2.8451,2.8458,2.8458,2.8459,2.8464,2.8466,2.8467,2.8469,2.8469,2.8471,2.847,2.8472,2.8474,2.8475,2.8477,2.8475,2.8468,2.8478,2.8478,2.8475,2.8461,2.8458,2.8457,2.847,2.847,2.847,2.846,0,2.8449,2.8452,2.8456,2.8456,2.8458,2.8462,2.8462,2.8463,2.8465,2.8465,2.8467,2.8467,2.847,2.8471,2.8469,2.847,2.8466,2.8471,2.8467,2.8467,2.8466,2.8456,2.8454,2.8445,2.8459,2.8459,2.8459,0,2.8448,2.845,2.8451,2.8453,2.8454,2.8454,2.8455,2.8456,2.8457,2.8458,2.8458,2.846,2.8458,2.8462,2.8458,2.8461,2.8459,2.8459,2.8459,2.8458,2.8462,2.8453,2.8442,2.844,2.8457,2.8458,2.8458,0,2.8443,2.8446,2.8446,2.8448,2.8451,2.845,2.8451,2.8453,2.8453,2.8453,2.8452,2.8452,2.8451,2.845,2.8451,2.8453,2.8446,2.845,2.8445,2.8445,2.8443,2.8443,2.843,2.8444,2.8444,2.8444,2.8444,0,2.844,2.844,2.8444,2.8444,2.8443,2.8446,2.8444,2.8446,2.8446,2.8445,2.8448,2.8446,2.8448,2.8446,2.8446,2.8442,2.8442,2.8441,2.8441,2.844,2.844,2.8439,2.8439,2.8443,2.8443,2.8443,2.8444,0,2.8435,2.8438,2.8438,2.8441,2.8441,2.844,2.8441,2.844,2.8441,2.8439,2.8438,2.844,2.8437,2.8438,2.8435,2.8435,2.8428,2.843,2.8428,2.8428,2.8423,2.8423,2.8408,2.8405,2.8422,2.8421,2.8421,0,2.8433,2.8433,2.8435,2.8434,2.8435,2.8434,2.8434,2.8436,2.8435,2.8435,2.8433,2.8431,2.8429,2.8424,2.8423,2.842,2.842,2.8415,2.842,2.8418,2.8418,2.8418,2.8417,2.8414,2.8414,2.8414,2.8414,0,2.8428,2.8429,2.8429,2.8428,2.8428,2.8427,2.8427,2.8426,2.8428,2.8426,2.8424,2.8422,2.8418,2.8415,2.8411,2.841,2.8411,2.8412,2.8411,2.841,2.8408,2.8407,2.8425,2.8413,2.8413,2.8413,2.8413,2.8413,2.8423,2.8422,2.8423,2.8422,2.8421,2.842,2.8419,2.8419,2.8417,2.8415,2.8415,2.8412,2.8409,2.8405,2.8403,2.8399,2.84,2.8399,2.8398,2.8397,2.8396,2.8409,2.8398,2.8398,2.8398,2.8398,2.8398,0,2.8417,2.8417,2.8416,2.8415,2.8414,2.8415,2.8414,2.8412,2.8409,2.8407,2.8405,2.84,2.8396,2.8394,2.839,2.8386,2.8386,2.8385,2.8384,2.8384,2.8395,2.8397,2.8384,2.8384,2.8384,2.8384,2.8384,2.8384,2.8414,2.8411,2.8412,2.8408,2.8407,2.8404,2.8403,2.8401,2.8399,2.8394,2.8391,2.839,2.8387,2.8382,2.8377,2.8376,2.8374,2.8371,2.8371,2.8382,2.8383,2.8384,2.8386,2.8371,2.8371,2.8359,2.8359,2.8359]}]]